Location: Oberkirch
(48.5323°N, 8.0787°E)
Time: 07:23:34
(UTC+00:00)

Tiros 1 - Pass Details

Date: 24 February 2026
Orbit: 618 x 649 km, 48.4° (Epoch: 12 March)

Event Time Altitude Azimuth Distance (km) Brightness Sun altitude
Rises 07:07:25 0° 249° (WSW) 2,921 10.1 6.8°
Reaches altitude 10° 07:09:45 10° 247° (WSW) 2,009 9.3 7.1°
Maximum altitude 07:14:21 71° 165° (SSE) 665 7.6 7.8°
Drops below altitude 10° 07:18:55 10° 81° (E) 1,995 10.8 8.5°
Sets 07:21:14 0° 79° (E) 2,898 11.5 8.9°
